Location: Arrodets-la-Barthe
(43.0306°N, 0.2829°E)
Time: 12:22:42
(UTC+00:00)

Cosmos 1447 Rocket - Pass Details

Date: 24 October 2021
Orbit: 954 x 996 km, 82.9° (Epoch: 07 December)

Event Time Altitude Azimuth Distance (km) Brightness Sun altitude
Rises 18:50:22 0° 352° (N) 3,643 7.6 -20.4°
Reaches altitude 10° 18:52:53 10° 352° (N) 2,692 6.9 -20.9°
Maximum altitude 18:59:02 90° 275° (W) 961 4.4 -22.0°
Drops below altitude 10° 19:05:11 10° 174° (S) 2,681 6.7 -23.1°
Sets 19:07:40 0° 175° (S) 3,627 7.4 -23.6°
